Location: Fort Wayne
(41.1310°N, 85.1290°W)
Time: 23:20:47
(UTC-04:00)

BREEZE-M DEB (TANK) - Visible Passes

Search period start: 03 August 2015 00:00
Search period end: 13 August 2015 00:00
Orbit: 270 x 13519 km, 49.6° (Epoch: 02 August)

Date Brightness Start Highest point End Pass type
(mag) Time Alt. Az. Time Alt. Az. Time Alt. Az.
03 Aug 6.2 02:36:19 10° NW 03:29:52 39° WSW 03:35:17 33° SW visible
03 Aug 6.5 22:33:02 10° WNW 00:27:22 88° NNE 00:43:04 27° ESE visible
04 Aug 7.0 04:29:40 10° NW 04:50:52 15° W 04:56:37 12° WSW visible
04 Aug 7.6 18:54:17 10° WSW 20:54:07 78° NNW 21:44:37 10° E visible
05 Aug 6.0 00:32:24 10° WNW 01:56:48 66° SW 02:04:25 45° S visible
05 Aug 7.2 20:33:57 10° W 22:42:15 78° N 23:12:14 10° ESE visible
06 Aug 6.4 02:27:49 10° NW 03:20:40 36° WSW 03:25:47 32° SW visible
06 Aug 6.5 22:25:31 10° WNW 00:19:03 89° SW 00:33:36 33° SE visible
07 Aug 7.2 04:23:05 10° WNW 04:41:19 13° W 04:47:09 10° W visible
07 Aug 7.6 18:45:59 10° WSW 20:46:34 77° N 21:36:25 10° E visible
08 Aug 6.1 00:24:00 10° WNW 01:47:50 63° WSW 01:54:58 47° S visible
08 Aug 7.1 20:26:06 10° W 22:34:17 79° NNE 23:02:46 15° ESE visible
09 Aug 6.6 02:19:03 10° NW 03:11:10 33° W 03:16:19 30° WSW visible
09 Aug 6.4 22:17:39 10° WNW 00:10:25 86° SW 00:24:08 37° SE visible
10 Aug 7.3 04:17:18 10° WNW 04:31:29 11° W 04:35:30 10° W visible
10 Aug 7.5 18:37:31 10° WSW 20:38:46 77° N 21:28:00 10° E visible
11 Aug 6.2 00:15:13 10° NW 01:38:33 59° WSW 01:45:30 46° SSW visible
11 Aug 7.0 20:18:00 10° W 22:26:01 80° NNE 22:53:19 18° ESE visible
12 Aug 6.8 02:10:02 10° NW 03:01:24 31° W 03:06:52 27° WSW visible
